Bloomington, IN

2:53 PM EDT on May 28, 2017 (GMT -0400)
Monroe County

Weather History for KBMG - January, 2013

Change the Weather History Date:

Thursday, January 3, 2013

  Actual Average Record
Temperature  
Mean Temperature 18 °F 29 °F  
Max Temperature 33 °F 38 °F 64 °F (1997)
Min Temperature 3 °F 21 °F -5 °F (2014)
Degree Days  
Heating Degree Days 47 36  
Month to date heating degree days 138 108  
Since 1 July heating degree days 2152 2181  
Cooling Degree Days 0 0  
Month to date cooling degree days 0 0  
Year to date cooling degree days 0 0  
Moisture  
Dew Point 14 °F    
Average Humidity 74    
Maximum Humidity 86    
Minimum Humidity 61    
Precipitation  
Precipitation 0.00 in 0.13 in 1.60 in (2015)
Month to date precipitation T 0.40  
Year to date precipitation T 0.40  
Sea Level Pressure  
Sea Level Pressure 30.29 in    
Wind  
Wind Speed 5 mph (WSW)    
Max Wind Speed 10 mph    
Max Gust Speed 15 mph    
Visibility 9 miles    
Events      
T = Trace of Precipitation, MM = Missing Value Source: NWS Daily Summary

Daily Weather History Graph

Daily Weather History Graph

Search for Another Location

Airport or City:

Trip Planner

Search our weather history database for the weather conditions in past years. The results will help you decide how hot, cold, wet, or windy it might be!

Date:

Astronomy

Jan. 03, 2013 Rise Set
Actual Time 8:06 AM EST 5:36 PM EST
Civil Twilight 7:36 AM EST 6:06 PM EST
Nautical Twilight 7:02 AM EST 6:39 PM EST
Astronomical Twilight 6:30 AM EST 7:12 PM EST
Moon No Moon Rise 11:20 AM EST (1/3)
Length of Visible Light 10h 30m
Length of Day
9h 30m
Waning Gibbous, 65% of the Moon is Illuminated
Jan 3
Waning Gibbous
Jan 4
Last Quarter
Jan 11
New
Jan 18
First Quarter
Jan 26
Full

Hourly Weather History & Observations

Time (EST) Temp. Windchill Dew Point Humidity Pressure Visibility Wind Dir Wind Speed Gust Speed Precip Events Conditions
12:53 AM 6.1 °F - 1.0 °F 80% 30.25 in 8.0 mi Calm Calm - N/A   Clear
1:53 AM 6.1 °F - 1.0 °F 80% 30.24 in 9.0 mi Calm Calm - N/A   Clear
2:53 AM 3.9 °F - -0.9 °F 80% 30.23 in 9.0 mi Calm Calm - N/A   Clear
3:53 AM 6.1 °F - -0.0 °F 76% 30.24 in 10.0 mi Calm Calm - N/A   Clear
4:53 AM 8.1 °F - -0.0 °F 70% 30.25 in 9.0 mi Calm Calm - N/A   Clear
5:53 AM 14.0 °F 3.9 °F 3.9 °F 64% 30.25 in 10.0 mi SW 6.9 mph - N/A   Clear
6:53 AM 16.0 °F 5.3 °F 5.0 °F 62% 30.25 in 10.0 mi WSW 8.1 mph - N/A   Clear
7:53 AM 15.1 °F 6.4 °F 6.1 °F 68% 30.27 in 10.0 mi WSW 5.8 mph - N/A   Clear
8:53 AM 18.0 °F 9.8 °F 8.1 °F 65% 30.27 in 10.0 mi WSW 5.8 mph - N/A   Clear
9:53 AM 21.0 °F 11.4 °F 10.9 °F 65% 30.29 in 10.0 mi West 8.1 mph - N/A   Clear
10:53 AM 23.0 °F 15.8 °F 12.9 °F 65% 30.30 in 10.0 mi West 5.8 mph - N/A   Partly Cloudy
11:53 AM 25.0 °F 18.1 °F 15.1 °F 66% 30.31 in 10.0 mi WSW 5.8 mph - N/A   Clear
12:53 PM 28.9 °F 22.8 °F 19.0 °F 67% 30.29 in 10.0 mi WSW 5.8 mph - N/A   Clear
1:53 PM 32.0 °F 24.8 °F 21.9 °F 66% 30.27 in 10.0 mi WSW 8.1 mph - N/A   Clear
2:53 PM 32.0 °F 24.8 °F 21.9 °F 66% 30.29 in 10.0 mi WNW 8.1 mph - N/A   Overcast
3:53 PM 30.9 °F 24.3 °F 23.0 °F 72% 30.30 in 8.0 mi WSW 6.9 mph - N/A   Overcast
4:53 PM 30.9 °F 24.3 °F 23.0 °F 72% 30.31 in 8.0 mi West 6.9 mph - N/A   Overcast
5:53 PM 30.0 °F 25.2 °F 21.9 °F 72% 30.32 in 8.0 mi WSW 4.6 mph - N/A   Mostly Cloudy
6:03 PM 30.2 °F 25.4 °F 21.2 °F 69% 30.29 in 9.0 mi WSW 4.6 mph - N/A   Mostly Cloudy
6:53 PM 28.0 °F 21.7 °F 21.0 °F 75% 30.34 in 8.0 mi WSW 5.8 mph - N/A   Mostly Cloudy
7:09 PM 28.4 °F 22.2 °F 21.2 °F 74% 30.31 in 7.0 mi WSW 5.8 mph - N/A   Scattered Clouds
7:53 PM 27.0 °F 20.5 °F 21.0 °F 78% 30.34 in 7.0 mi WSW 5.8 mph - N/A   Overcast
8:53 PM 28.9 °F 23.9 °F 21.9 °F 75% 30.34 in 8.0 mi West 4.6 mph - N/A   Overcast
9:53 PM 30.0 °F 25.2 °F 21.9 °F 72% 30.34 in 9.0 mi West 4.6 mph - N/A   Overcast
10:26 PM 30.2 °F 24.3 °F 21.2 °F 69% 30.31 in 10.0 mi West 5.8 mph - N/A   Overcast
10:53 PM 30.9 °F 25.2 °F 21.9 °F 69% 30.35 in 10.0 mi West 5.8 mph - N/A   Overcast
11:53 PM 30.9 °F 24.3 °F 21.9 °F 69% 30.36 in 10.0 mi West 6.9 mph - N/A   Overcast